STARLINK-5020 (55458 NORAD) Tracking and Keplerian Element Data

This shows tracking and keplerian element data for the satellite.

Feedback or suggestion? Click here.




ElementValue
Catalog55458
NameSTARLINK-5020
Epoch Orbit831
Epoch Day85.25001157
Epoch Year2023
RAAN76.7491
Inclination43.0011
Eccentricity0.0001341
Argument of Perigee273.988
Mean Anonmoly142.2663
Mean Motion15.48915723
Decay Rate-0.00036488
L11 55458U 23015K 23085.25001157 -.00036488 00000+0 -65671-3 0 9995
L22 55458 43.0011 76.7491 0001341 273.9880 142.2663 15.48915723 8319



Live tracking and technical data element details for STARLINK-5020 (NORAD 55458). STARLINK-5020 can be tracked NOW for your location showing map with azimuth and elevation plus other details from your city location.







IsCatalogInMostPopularTable: catalog: 55458, numindb: -1

Insert: records affected: 1


GetName: 55458 STARLINK-5020

Hit Count: inserted at: Tue, 28 Mar 2023 03:26:01 GMT